Multibeam Report for NBP0304


Ship Name: Nathaniel B. Palmer
Chief Scientist: Cande, Steven
Source Organization: Marine Geoscience Data System (MGDS)
Start Date: 2003-05-23
End Date: 2003-07-02


View ISO Metadata

Visit the full NCEI Bathymetry Viewer


Multibeam Bathymetry

Cruise Details

Project: Antarctic Multibeam Bathymetry
Instrument: Simrad EM120

Data Quality

Number of Files: 681
Number of Records: 165962
BATHYMETRY DATA Quantity Percentage
Number of Beams 31698742 100%
Number of Good Beams 22964651 72.45%
Number of Zero Beams 5107841 16.11%
Number of Flagged Beams 3626250 11.44%

Navigation Totals

Total Time: 641.0523 hours
Total Track Length: 12663.9956 km
Average Speed: 19.755 km/hr (10.6669 knots)

Cruise Bounds

Northern Extent: 53.445263
Southern Extent: -43.46647
Western Extent: 172.95953
Eastern Extent: -157.87778

Limits

Minimum Sonar Depth -5242.8799 Maximum Sonar Depth 31457.2793
Minimum Altitude 0 Maximum Altitude 10246.8701
Minimum Depth 14.65 Maximum Depth 9703.6699

File Information

Full Resolution Bathymetry as collected (raw): 678

Files File Size Description
0001_20030522_230426p.mb57.gz 57.42MB Simrad multibeam processing format
0002_20030523_000426p.mb57.gz 67.29MB Simrad multibeam processing format
0003_20030523_012646p.mb57.gz 19.88MB Simrad multibeam processing format
0004_20030523_184532p.mb57.gz 8.02MB Simrad multibeam processing format
0005_20030523_194532p.mb57.gz 6.57MB Simrad multibeam processing format
0006_20030523_204532p.mb57.gz 5.94MB Simrad multibeam processing format
0007_20030523_213913p.mb57.gz 0.88MB Simrad multibeam processing format
0008_20030523_214712p.mb57.gz 6.70MB Simrad multibeam processing format
0009_20030523_224712p.mb57.gz 6.41MB Simrad multibeam processing format
0010_20030523_234712p.mb57.gz 6.59MB Simrad multibeam processing format
0011_20030524_004712p.mb57.gz 6.46MB Simrad multibeam processing format
0012_20030524_014712p.mb57.gz 6.53MB Simrad multibeam processing format
0013_20030524_024712p.mb57.gz 6.27MB Simrad multibeam processing format
0014_20030524_034712p.mb57.gz 7.30MB Simrad multibeam processing format
0015_20030524_044712p.mb57.gz 6.67MB Simrad multibeam processing format
0016_20030524_054713p.mb57.gz 6.94MB Simrad multibeam processing format
0017_20030524_064713p.mb57.gz 10.71MB Simrad multibeam processing format
0018_20030524_074713p.mb57.gz 11.18MB Simrad multibeam processing format
0019_20030524_084713p.mb57.gz 11.85MB Simrad multibeam processing format
0020_20030524_094713p.mb57.gz 10.73MB Simrad multibeam processing format
0021_20030524_104713p.mb57.gz 7.85MB Simrad multibeam processing format
0022_20030524_114713p.mb57.gz 7.89MB Simrad multibeam processing format
0023_20030524_124713p.mb57.gz 11.14MB Simrad multibeam processing format
0024_20030524_134713p.mb57.gz 11.30MB Simrad multibeam processing format
0025_20030524_144714p.mb57.gz 6.52MB Simrad multibeam processing format
0026_20030524_154714p.mb57.gz 5.58MB Simrad multibeam processing format
0027_20030524_164714p.mb57.gz 5.44MB Simrad multibeam processing format
0028_20030524_174714p.mb57.gz 5.55MB Simrad multibeam processing format
0029_20030524_184714p.mb57.gz 5.29MB Simrad multibeam processing format
0030_20030524_194714p.mb57.gz 5.20MB Simrad multibeam processing format
0031_20030524_204714p.mb57.gz 5.20MB Simrad multibeam processing format
0032_20030524_214715p.mb57.gz 5.13MB Simrad multibeam processing format
0033_20030524_224715p.mb57.gz 5.35MB Simrad multibeam processing format
0034_20030524_234715p.mb57.gz 5.27MB Simrad multibeam processing format
0035_20030525_004715p.mb57.gz 5.35MB Simrad multibeam processing format
0036_20030525_014715p.mb57.gz 5.66MB Simrad multibeam processing format
0037_20030525_024715p.mb57.gz 5.92MB Simrad multibeam processing format
0038_20030525_034715p.mb57.gz 5.64MB Simrad multibeam processing format
0039_20030525_044715p.mb57.gz 5.54MB Simrad multibeam processing format
0040_20030525_054716p.mb57.gz 5.50MB Simrad multibeam processing format
0041_20030525_064716p.mb57.gz 5.43MB Simrad multibeam processing format
0042_20030525_074716p.mb57.gz 5.34MB Simrad multibeam processing format
0043_20030525_084716p.mb57.gz 5.17MB Simrad multibeam processing format
0044_20030525_094716p.mb57.gz 5.17MB Simrad multibeam processing format
0045_20030525_104716p.mb57.gz 5.21MB Simrad multibeam processing format
0046_20030525_114716p.mb57.gz 9.15MB Simrad multibeam processing format
0051_20030525_134329p.mb57.gz 4.35MB Simrad multibeam processing format
0052_20030525_144330p.mb57.gz 4.38MB Simrad multibeam processing format
0053_20030525_154330p.mb57.gz 4.26MB Simrad multibeam processing format
0054_20030525_164330p.mb57.gz 4.07MB Simrad multibeam processing format
0055_20030525_174330p.mb57.gz 3.97MB Simrad multibeam processing format
0056_20030525_184330p.mb57.gz 3.97MB Simrad multibeam processing format
0057_20030525_194330p.mb57.gz 3.95MB Simrad multibeam processing format
0058_20030525_204330p.mb57.gz 3.99MB Simrad multibeam processing format
0059_20030525_214330p.mb57.gz 4.06MB Simrad multibeam processing format
0060_20030525_224330p.mb57.gz 4.07MB Simrad multibeam processing format
0061_20030525_234330p.mb57.gz 209.7KB Simrad multibeam processing format
0063_20030525_234711p.mb57.gz 22.1KB Simrad multibeam processing format
0068_20030525_234933p.mb57.gz 497.9KB Simrad multibeam processing format
0069_20030525_235635p.mb57.gz 1.02MB Simrad multibeam processing format
0070_20030526_001148p.mb57.gz 4.04MB Simrad multibeam processing format
0071_20030526_011148p.mb57.gz 3.93MB Simrad multibeam processing format
0072_20030526_021148p.mb57.gz 3.92MB Simrad multibeam processing format
0073_20030526_031148p.mb57.gz 3.95MB Simrad multibeam processing format
0074_20030526_041148p.mb57.gz 3.99MB Simrad multibeam processing format
0075_20030526_051148p.mb57.gz 3.92MB Simrad multibeam processing format
0076_20030526_061148p.mb57.gz 4.07MB Simrad multibeam processing format
0077_20030526_071149p.mb57.gz 3.98MB Simrad multibeam processing format
0078_20030526_081149p.mb57.gz 4.02MB Simrad multibeam processing format
0079_20030526_091149p.mb57.gz 3.99MB Simrad multibeam processing format
0080_20030526_101149p.mb57.gz 4.02MB Simrad multibeam processing format
0081_20030526_111149p.mb57.gz 3.95MB Simrad multibeam processing format
0082_20030526_121149p.mb57.gz 3.96MB Simrad multibeam processing format
0083_20030526_131149p.mb57.gz 4.03MB Simrad multibeam processing format
0084_20030526_141150p.mb57.gz 4.02MB Simrad multibeam processing format
0085_20030526_151150p.mb57.gz 4.01MB Simrad multibeam processing format
0086_20030526_161150p.mb57.gz 4.31MB Simrad multibeam processing format
0087_20030526_171150p.mb57.gz 3.98MB Simrad multibeam processing format
0088_20030526_181150p.mb57.gz 4.07MB Simrad multibeam processing format
0089_20030526_191150p.mb57.gz 4.06MB Simrad multibeam processing format
0090_20030526_201150p.mb57.gz 4.07MB Simrad multibeam processing format
0091_20030526_211151p.mb57.gz 4.03MB Simrad multibeam processing format
0092_20030526_221151p.mb57.gz 3.98MB Simrad multibeam processing format
0093_20030526_231151p.mb57.gz 3.96MB Simrad multibeam processing format
0094_20030527_001151p.mb57.gz 435.8KB Simrad multibeam processing format
0095_20030527_001810p.mb57.gz 4.16MB Simrad multibeam processing format
0096_20030527_011811p.mb57.gz 4.18MB Simrad multibeam processing format
0097_20030527_021811p.mb57.gz 4.06MB Simrad multibeam processing format
0098_20030527_031811p.mb57.gz 4.15MB Simrad multibeam processing format
0099_20030527_041809p.mb57.gz 4.18MB Simrad multibeam processing format
0100_20030527_051809p.mb57.gz 4.11MB Simrad multibeam processing format
0101_20030527_061809p.mb57.gz 4.06MB Simrad multibeam processing format
0102_20030527_071809p.mb57.gz 3.94MB Simrad multibeam processing format
0103_20030527_081809p.mb57.gz 4.00MB Simrad multibeam processing format
0104_20030527_091809p.mb57.gz 3.98MB Simrad multibeam processing format
0105_20030527_101810p.mb57.gz 4.04MB Simrad multibeam processing format
0106_20030527_111810p.mb57.gz 4.13MB Simrad multibeam processing format
0107_20030527_121810p.mb57.gz 4.22MB Simrad multibeam processing format
0108_20030527_131810p.mb57.gz 4.11MB Simrad multibeam processing format
0109_20030527_141810p.mb57.gz 4.10MB Simrad multibeam processing format
0110_20030527_151810p.mb57.gz 4.28MB Simrad multibeam processing format
0111_20030527_161810p.mb57.gz 4.12MB Simrad multibeam processing format
0112_20030527_171810p.mb57.gz 4.11MB Simrad multibeam processing format
0113_20030527_181810p.mb57.gz 4.00MB Simrad multibeam processing format
0114_20030527_191811p.mb57.gz 3.98MB Simrad multibeam processing format
0115_20030527_201811p.mb57.gz 2.44MB Simrad multibeam processing format
0116_20030527_205414p.mb57.gz 4.16MB Simrad multibeam processing format
0117_20030527_215415p.mb57.gz 4.13MB Simrad multibeam processing format
0118_20030527_225415p.mb57.gz 4.14MB Simrad multibeam processing format
0119_20030527_235415p.mb57.gz 4.02MB Simrad multibeam processing format
0120_20030528_005415p.mb57.gz 4.28MB Simrad multibeam processing format
0121_20030528_015415p.mb57.gz 4.72MB Simrad multibeam processing format
0122_20030528_025415p.mb57.gz 5.10MB Simrad multibeam processing format
0123_20030528_035415p.mb57.gz 5.02MB Simrad multibeam processing format
0124_20030528_045416p.mb57.gz 5.26MB Simrad multibeam processing format
0125_20030528_055416p.mb57.gz 5.24MB Simrad multibeam processing format
0126_20030528_065416p.mb57.gz 5.66MB Simrad multibeam processing format
0127_20030528_075416p.mb57.gz 5.33MB Simrad multibeam processing format
0128_20030528_085416p.mb57.gz 4.72MB Simrad multibeam processing format
0129_20030528_095416p.mb57.gz 4.77MB Simrad multibeam processing format
0130_20030528_105416p.mb57.gz 4.72MB Simrad multibeam processing format
0131_20030528_115416p.mb57.gz 4.72MB Simrad multibeam processing format
0132_20030528_125416p.mb57.gz 4.73MB Simrad multibeam processing format
0133_20030528_135417p.mb57.gz 4.68MB Simrad multibeam processing format
0134_20030528_145417p.mb57.gz 4.65MB Simrad multibeam processing format
0135_20030528_155417p.mb57.gz 4.71MB Simrad multibeam processing format
0136_20030528_165417p.mb57.gz 4.74MB Simrad multibeam processing format
0137_20030528_175417p.mb57.gz 4.74MB Simrad multibeam processing format
0138_20030528_185417p.mb57.gz 4.69MB Simrad multibeam processing format
0139_20030528_195417p.mb57.gz 4.78MB Simrad multibeam processing format
0140_20030528_205417p.mb57.gz 4.75MB Simrad multibeam processing format
0141_20030528_215417p.mb57.gz 4.75MB Simrad multibeam processing format
0142_20030528_225417p.mb57.gz 4.70MB Simrad multibeam processing format
0143_20030528_235418p.mb57.gz 3.06MB Simrad multibeam processing format
0144_20030529_003402p.mb57.gz 1.20MB Simrad multibeam processing format
0146_20030529_005045p.mb57.gz 4.58MB Simrad multibeam processing format
0147_20030529_015046p.mb57.gz 4.29MB Simrad multibeam processing format
0148_20030529_025046p.mb57.gz 4.43MB Simrad multibeam processing format
0149_20030529_035046p.mb57.gz 4.79MB Simrad multibeam processing format
0150_20030529_045046p.mb57.gz 4.85MB Simrad multibeam processing format
0151_20030529_055046p.mb57.gz 4.70MB Simrad multibeam processing format
0152_20030529_065046p.mb57.gz 4.80MB Simrad multibeam processing format
0153_20030529_075046p.mb57.gz 4.69MB Simrad multibeam processing format
0154_20030529_085046p.mb57.gz 4.60MB Simrad multibeam processing format
0155_20030529_095046p.mb57.gz 4.63MB Simrad multibeam processing format
0156_20030529_105047p.mb57.gz 4.49MB Simrad multibeam processing format
0157_20030529_115047p.mb57.gz 4.55MB Simrad multibeam processing format
0158_20030529_125047p.mb57.gz 4.70MB Simrad multibeam processing format
0159_20030529_135047p.mb57.gz 4.59MB Simrad multibeam processing format
0160_20030529_145047p.mb57.gz 4.54MB Simrad multibeam processing format
0161_20030529_155047p.mb57.gz 4.48MB Simrad multibeam processing format
0162_20030529_165047p.mb57.gz 4.52MB Simrad multibeam processing format
0163_20030529_175047p.mb57.gz 4.42MB Simrad multibeam processing format
0164_20030529_185047p.mb57.gz 4.32MB Simrad multibeam processing format
0165_20030529_195047p.mb57.gz 4.38MB Simrad multibeam processing format
0166_20030529_205048p.mb57.gz 4.25MB Simrad multibeam processing format
0167_20030529_215048p.mb57.gz 4.42MB Simrad multibeam processing format
0168_20030529_225048p.mb57.gz 4.39MB Simrad multibeam processing format
0169_20030529_235048p.mb57.gz 4.47MB Simrad multibeam processing format
0170_20030530_005048p.mb57.gz 4.41MB Simrad multibeam processing format
0171_20030530_015048p.mb57.gz 4.41MB Simrad multibeam processing format
0172_20030530_025048p.mb57.gz 4.46MB Simrad multibeam processing format
0173_20030530_035048p.mb57.gz 3.32MB Simrad multibeam processing format
0174_20030530_043346p.mb57.gz 4.66MB Simrad multibeam processing format
0175_20030530_053346p.mb57.gz 4.71MB Simrad multibeam processing format
0176_20030530_063347p.mb57.gz 4.70MB Simrad multibeam processing format
0177_20030530_073347p.mb57.gz 4.67MB Simrad multibeam processing format
0178_20030530_083347p.mb57.gz 4.74MB Simrad multibeam processing format
0179_20030530_093347p.mb57.gz 4.66MB Simrad multibeam processing format
0180_20030530_103348p.mb57.gz 4.71MB Simrad multibeam processing format
0181_20030530_113348p.mb57.gz 4.65MB Simrad multibeam processing format
0182_20030530_123348p.mb57.gz 4.66MB Simrad multibeam processing format
0183_20030530_133348p.mb57.gz 4.67MB Simrad multibeam processing format
0184_20030530_143348p.mb57.gz 4.68MB Simrad multibeam processing format
0185_20030530_153348p.mb57.gz 4.58MB Simrad multibeam processing format
0186_20030530_163348p.mb57.gz 4.49MB Simrad multibeam processing format
0187_20030530_173349p.mb57.gz 4.52MB Simrad multibeam processing format
0188_20030530_183349p.mb57.gz 4.55MB Simrad multibeam processing format
0189_20030530_193349p.mb57.gz 4.68MB Simrad multibeam processing format
0190_20030530_203349p.mb57.gz 4.65MB Simrad multibeam processing format
0191_20030530_213349p.mb57.gz 4.69MB Simrad multibeam processing format
0192_20030530_223349p.mb57.gz 4.66MB Simrad multibeam processing format
0193_20030530_233349p.mb57.gz 4.65MB Simrad multibeam processing format
0194_20030531_003350p.mb57.gz 4.63MB Simrad multibeam processing format
0195_20030531_013350p.mb57.gz 4.69MB Simrad multibeam processing format
0196_20030531_023350p.mb57.gz 4.65MB Simrad multibeam processing format
0197_20030531_033350p.mb57.gz 4.66MB Simrad multibeam processing format
0198_20030531_043350p.mb57.gz 4.81MB Simrad multibeam processing format
0199_20030531_053350p.mb57.gz 4.69MB Simrad multibeam processing format
0200_20030531_063350p.mb57.gz 4.92MB Simrad multibeam processing format
0201_20030531_073351p.mb57.gz 4.78MB Simrad multibeam processing format
0202_20030531_083351p.mb57.gz 4.85MB Simrad multibeam processing format
0203_20030531_093351p.mb57.gz 4.80MB Simrad multibeam processing format
0204_20030531_103351p.mb57.gz 5.15MB Simrad multibeam processing format
0205_20030531_113351p.mb57.gz 5.22MB Simrad multibeam processing format
0206_20030531_123351p.mb57.gz 4.93MB Simrad multibeam processing format
0207_20030531_133352p.mb57.gz 5.08MB Simrad multibeam processing format
0208_20030531_143352p.mb57.gz 5.25MB Simrad multibeam processing format
0209_20030531_153352p.mb57.gz 5.07MB Simrad multibeam processing format
0210_20030531_163352p.mb57.gz 4.85MB Simrad multibeam processing format
0211_20030531_173352p.mb57.gz 4.85MB Simrad multibeam processing format
0212_20030531_183352p.mb57.gz 4.90MB Simrad multibeam processing format
0213_20030531_193352p.mb57.gz 4.82MB Simrad multibeam processing format
0214_20030531_203353p.mb57.gz 4.85MB Simrad multibeam processing format
0215_20030531_213353p.mb57.gz 4.95MB Simrad multibeam processing format
0216_20030531_223353p.mb57.gz 3.25MB Simrad multibeam processing format
0218_20030531_232704p.mb57.gz 4.94MB Simrad multibeam processing format
0219_20030601_002704p.mb57.gz 4.91MB Simrad multibeam processing format
0220_20030601_012704p.mb57.gz 4.97MB Simrad multibeam processing format
0221_20030601_022705p.mb57.gz 4.87MB Simrad multibeam processing format
0222_20030601_032705p.mb57.gz 4.89MB Simrad multibeam processing format
0223_20030601_042705p.mb57.gz 4.86MB Simrad multibeam processing format
0224_20030601_052703p.mb57.gz 4.92MB Simrad multibeam processing format
0225_20030601_062703p.mb57.gz 4.89MB Simrad multibeam processing format
0226_20030601_072703p.mb57.gz 4.91MB Simrad multibeam processing format
0227_20030601_082703p.mb57.gz 4.86MB Simrad multibeam processing format
0228_20030601_092703p.mb57.gz 4.97MB Simrad multibeam processing format
0229_20030601_102703p.mb57.gz 4.96MB Simrad multibeam processing format
0230_20030601_112704p.mb57.gz 5.01MB Simrad multibeam processing format
0231_20030601_122704p.mb57.gz 4.90MB Simrad multibeam processing format
0232_20030601_132704p.mb57.gz 4.94MB Simrad multibeam processing format
0233_20030601_142704p.mb57.gz 4.89MB Simrad multibeam processing format
0234_20030601_152704p.mb57.gz 4.85MB Simrad multibeam processing format
0235_20030601_162704p.mb57.gz 4.84MB Simrad multibeam processing format
0236_20030601_172704p.mb57.gz 4.99MB Simrad multibeam processing format
0237_20030601_182704p.mb57.gz 4.86MB Simrad multibeam processing format
0238_20030601_192704p.mb57.gz 4.82MB Simrad multibeam processing format
0239_20030601_202704p.mb57.gz 4.98MB Simrad multibeam processing format
0240_20030601_212705p.mb57.gz 4.90MB Simrad multibeam processing format
0241_20030601_222705p.mb57.gz 4.95MB Simrad multibeam processing format
0242_20030601_232705p.mb57.gz 4.89MB Simrad multibeam processing format
0243_20030602_002705p.mb57.gz 3.32MB Simrad multibeam processing format
0244_20030602_010646p.mb57.gz 5.04MB Simrad multibeam processing format
0245_20030602_020647p.mb57.gz 5.13MB Simrad multibeam processing format
0246_20030602_030647p.mb57.gz 5.26MB Simrad multibeam processing format
0247_20030602_040647p.mb57.gz 5.50MB Simrad multibeam processing format
0248_20030602_050647p.mb57.gz 5.58MB Simrad multibeam processing format
0249_20030602_060647p.mb57.gz 5.43MB Simrad multibeam processing format
0250_20030602_070648p.mb57.gz 4.82MB Simrad multibeam processing format
0251_20030602_080648p.mb57.gz 5.03MB Simrad multibeam processing format
0252_20030602_090648p.mb57.gz 5.12MB Simrad multibeam processing format
0253_20030602_100648p.mb57.gz 3.75MB Simrad multibeam processing format
0254_20030602_104702p.mb57.gz 0.88MB Simrad multibeam processing format
0255_20030602_105720p.mb57.gz 3.22MB Simrad multibeam processing format
0256_20030602_113217p.mb57.gz 1.17MB Simrad multibeam processing format
0257_20030602_114526p.mb57.gz 3.58MB Simrad multibeam processing format
0258_20030602_122149p.mb57.gz 6.05MB Simrad multibeam processing format
0259_20030602_132149p.mb57.gz 6.00MB Simrad multibeam processing format
0260_20030602_142149p.mb57.gz 6.08MB Simrad multibeam processing format
0261_20030602_152150p.mb57.gz 5.21MB Simrad multibeam processing format
0262_20030602_161111p.mb57.gz 6.17MB Simrad multibeam processing format
0263_20030602_171111p.mb57.gz 5.77MB Simrad multibeam processing format
0264_20030602_181111p.mb57.gz 5.75MB Simrad multibeam processing format
0265_20030602_191111p.mb57.gz 5.87MB Simrad multibeam processing format
0266_20030602_201111p.mb57.gz 5.15MB Simrad multibeam processing format
0267_20030602_211111p.mb57.gz 5.34MB Simrad multibeam processing format
0268_20030602_221111p.mb57.gz 5.63MB Simrad multibeam processing format
0269_20030602_231111p.mb57.gz 5.65MB Simrad multibeam processing format
0270_20030603_001112p.mb57.gz 5.52MB Simrad multibeam processing format
0271_20030603_011112p.mb57.gz 4.88MB Simrad multibeam processing format
0272_20030603_021112p.mb57.gz 5.05MB Simrad multibeam processing format
0273_20030603_031112p.mb57.gz 5.01MB Simrad multibeam processing format
0274_20030603_041112p.mb57.gz 5.12MB Simrad multibeam processing format
0275_20030603_051112p.mb57.gz 5.48MB Simrad multibeam processing format
0276_20030603_061112p.mb57.gz 5.38MB Simrad multibeam processing format
0277_20030603_071112p.mb57.gz 5.62MB Simrad multibeam processing format
0278_20030603_081113p.mb57.gz 5.31MB Simrad multibeam processing format
0279_20030603_091113p.mb57.gz 5.19MB Simrad multibeam processing format
0280_20030603_101113p.mb57.gz 4.97MB Simrad multibeam processing format
0281_20030603_111114p.mb57.gz 0.61MB Simrad multibeam processing format
0283_20030603_111843p.mb57.gz 5.38MB Simrad multibeam processing format
0284_20030603_121844p.mb57.gz 5.42MB Simrad multibeam processing format
0285_20030603_131844p.mb57.gz 5.45MB Simrad multibeam processing format
0286_20030603_141844p.mb57.gz 5.23MB Simrad multibeam processing format
0287_20030603_151844p.mb57.gz 4.90MB Simrad multibeam processing format
0288_20030603_161844p.mb57.gz 4.82MB Simrad multibeam processing format
0289_20030603_171844p.mb57.gz 4.83MB Simrad multibeam processing format
0290_20030603_181844p.mb57.gz 4.95MB Simrad multibeam processing format
0291_20030603_191844p.mb57.gz 5.06MB Simrad multibeam processing format
0292_20030603_201844p.mb57.gz 5.08MB Simrad multibeam processing format
0293_20030603_211845p.mb57.gz 3.20MB Simrad multibeam processing format
0294_20030603_215655p.mb57.gz 193.1KB Simrad multibeam processing format
0295_20030603_215941p.mb57.gz 0.65MB Simrad multibeam processing format
0296_20030603_220739p.mb57.gz 0.83MB Simrad multibeam processing format
0297_20030603_221749p.mb57.gz 5.15MB Simrad multibeam processing format
0298_20030603_231749p.mb57.gz 5.17MB Simrad multibeam processing format
0299_20030604_001749p.mb57.gz 322.4KB Simrad multibeam processing format
0300_20030604_002142p.mb57.gz 4.96MB Simrad multibeam processing format
0301_20030604_012142p.mb57.gz 4.64MB Simrad multibeam processing format
0302_20030604_022142p.mb57.gz 5.57MB Simrad multibeam processing format
0303_20030604_032142p.mb57.gz 4.86MB Simrad multibeam processing format
0304_20030604_042142p.mb57.gz 4.69MB Simrad multibeam processing format
0305_20030604_052143p.mb57.gz 4.90MB Simrad multibeam processing format
0306_20030604_062143p.mb57.gz 5.11MB Simrad multibeam processing format
0307_20030604_072143p.mb57.gz 4.94MB Simrad multibeam processing format
0308_20030604_082143p.mb57.gz 4.89MB Simrad multibeam processing format
0309_20030604_092143p.mb57.gz 4.94MB Simrad multibeam processing format
0310_20030604_102143p.mb57.gz 4.90MB Simrad multibeam processing format
0311_20030604_112143p.mb57.gz 4.95MB Simrad multibeam processing format
0312_20030604_122144p.mb57.gz 4.96MB Simrad multibeam processing format
0313_20030604_132144p.mb57.gz 4.29MB Simrad multibeam processing format
0314_20030604_141528p.mb57.gz 266.6KB Simrad multibeam processing format
0315_20030604_141913p.mb57.gz 5.74MB Simrad multibeam processing format
0316_20030604_151913p.mb57.gz 4.77MB Simrad multibeam processing format
0317_20030604_161913p.mb57.gz 5.13MB Simrad multibeam processing format
0318_20030604_171913p.mb57.gz 4.95MB Simrad multibeam processing format
0319_20030604_181913p.mb57.gz 4.98MB Simrad multibeam processing format
0320_20030604_191913p.mb57.gz 4.97MB Simrad multibeam processing format
0321_20030604_201914p.mb57.gz 5.23MB Simrad multibeam processing format
0322_20030604_211914p.mb57.gz 4.86MB Simrad multibeam processing format
0323_20030604_221914p.mb57.gz 4.97MB Simrad multibeam processing format
0324_20030604_231914p.mb57.gz 5.00MB Simrad multibeam processing format
0325_20030605_001914p.mb57.gz 5.01MB Simrad multibeam processing format
0326_20030605_011914p.mb57.gz 4.87MB Simrad multibeam processing format
0327_20030605_021914p.mb57.gz 4.96MB Simrad multibeam processing format
0328_20030605_031914p.mb57.gz 5.04MB Simrad multibeam processing format
0329_20030605_041914p.mb57.gz 4.80MB Simrad multibeam processing format
0330_20030605_051915p.mb57.gz 4.82MB Simrad multibeam processing format
0331_20030605_061915p.mb57.gz 4.92MB Simrad multibeam processing format
0332_20030605_071915p.mb57.gz 4.67MB Simrad multibeam processing format
0333_20030605_081915p.mb57.gz 4.85MB Simrad multibeam processing format
0334_20030605_091915p.mb57.gz 4.84MB Simrad multibeam processing format
0335_20030605_101915p.mb57.gz 4.87MB Simrad multibeam processing format
0336_20030605_111915p.mb57.gz 4.88MB Simrad multibeam processing format
0337_20030605_121915p.mb57.gz 4.93MB Simrad multibeam processing format
0338_20030605_131915p.mb57.gz 4.85MB Simrad multibeam processing format
0339_20030605_141916p.mb57.gz 4.89MB Simrad multibeam processing format
0340_20030605_151916p.mb57.gz 4.84MB Simrad multibeam processing format
0341_20030605_161916p.mb57.gz 4.95MB Simrad multibeam processing format
0342_20030605_171917p.mb57.gz 5.03MB Simrad multibeam processing format
0343_20030605_181917p.mb57.gz 5.09MB Simrad multibeam processing format
0344_20030605_191917p.mb57.gz 5.16MB Simrad multibeam processing format
0345_20030605_201917p.mb57.gz 5.10MB Simrad multibeam processing format
0346_20030605_211917p.mb57.gz 5.12MB Simrad multibeam processing format
0347_20030605_221917p.mb57.gz 5.19MB Simrad multibeam processing format
0348_20030605_231917p.mb57.gz 5.13MB Simrad multibeam processing format
0349_20030606_001917p.mb57.gz 5.19MB Simrad multibeam processing format
0350_20030606_011917p.mb57.gz 5.18MB Simrad multibeam processing format
0351_20030606_021917p.mb57.gz 5.16MB Simrad multibeam processing format
0352_20030606_031918p.mb57.gz 4.94MB Simrad multibeam processing format
0353_20030606_041918p.mb57.gz 5.18MB Simrad multibeam processing format
0354_20030606_051918p.mb57.gz 5.54MB Simrad multibeam processing format
0355_20030606_061918p.mb57.gz 4.76MB Simrad multibeam processing format
0356_20030606_071916p.mb57.gz 4.86MB Simrad multibeam processing format
0357_20030606_081916p.mb57.gz 4.96MB Simrad multibeam processing format
0358_20030606_091917p.mb57.gz 4.80MB Simrad multibeam processing format
0359_20030606_101917p.mb57.gz 4.83MB Simrad multibeam processing format
0360_20030606_111917p.mb57.gz 4.92MB Simrad multibeam processing format
0361_20030606_121917p.mb57.gz 4.77MB Simrad multibeam processing format
0362_20030606_131918p.mb57.gz 4.81MB Simrad multibeam processing format
0363_20030606_141918p.mb57.gz 4.77MB Simrad multibeam processing format
0364_20030606_151918p.mb57.gz 4.73MB Simrad multibeam processing format
0365_20030606_161918p.mb57.gz 4.90MB Simrad multibeam processing format
0366_20030606_171918p.mb57.gz 4.81MB Simrad multibeam processing format
0367_20030606_181918p.mb57.gz 4.85MB Simrad multibeam processing format
0368_20030606_191918p.mb57.gz 4.35MB Simrad multibeam processing format
0369_20030606_201211p.mb57.gz 85.9KB Simrad multibeam processing format
0370_20030606_201340p.mb57.gz 65.2KB Simrad multibeam processing format
0371_20030606_201446p.mb57.gz 4.87MB Simrad multibeam processing format
0372_20030606_211446p.mb57.gz 3.81MB Simrad multibeam processing format
0373_20030606_220157p.mb57.gz 20.7KB Simrad multibeam processing format
0374_20030606_220246p.mb57.gz 4.94MB Simrad multibeam processing format
0375_20030606_230246p.mb57.gz 2.02MB Simrad multibeam processing format
0376_20030606_232724p.mb57.gz 4.86MB Simrad multibeam processing format
0377_20030607_002724p.mb57.gz 4.90MB Simrad multibeam processing format
0378_20030607_012724p.mb57.gz 5.09MB Simrad multibeam processing format
0379_20030607_022724p.mb57.gz 4.95MB Simrad multibeam processing format
0380_20030607_032724p.mb57.gz 5.22MB Simrad multibeam processing format
0381_20030607_042724p.mb57.gz 5.41MB Simrad multibeam processing format
0382_20030607_052724p.mb57.gz 5.35MB Simrad multibeam processing format
0383_20030607_062725p.mb57.gz 5.38MB Simrad multibeam processing format
0384_20030607_072725p.mb57.gz 5.27MB Simrad multibeam processing format
0385_20030607_082725p.mb57.gz 4.95MB Simrad multibeam processing format
0386_20030607_092725p.mb57.gz 4.79MB Simrad multibeam processing format
0387_20030607_102725p.mb57.gz 4.86MB Simrad multibeam processing format
0388_20030607_112725p.mb57.gz 4.88MB Simrad multibeam processing format
0389_20030607_122725p.mb57.gz 4.90MB Simrad multibeam processing format
0390_20030607_132725p.mb57.gz 4.81MB Simrad multibeam processing format
0391_20030607_142725p.mb57.gz 4.80MB Simrad multibeam processing format
0392_20030607_152725p.mb57.gz 4.84MB Simrad multibeam processing format
0393_20030607_162726p.mb57.gz 4.98MB Simrad multibeam processing format
0394_20030607_172726p.mb57.gz 4.90MB Simrad multibeam processing format
0395_20030607_182726p.mb57.gz 4.81MB Simrad multibeam processing format
0396_20030607_192726p.mb57.gz 5.19MB Simrad multibeam processing format
0397_20030607_202726p.mb57.gz 6.14MB Simrad multibeam processing format
0398_20030607_212726p.mb57.gz 4.94MB Simrad multibeam processing format
0399_20030607_222726p.mb57.gz 4.85MB Simrad multibeam processing format
0400_20030607_232726p.mb57.gz 5.04MB Simrad multibeam processing format
0401_20030608_002726p.mb57.gz 5.02MB Simrad multibeam processing format
0402_20030608_012727p.mb57.gz 5.36MB Simrad multibeam processing format
0403_20030608_022727p.mb57.gz 5.48MB Simrad multibeam processing format
0404_20030608_032727p.mb57.gz 5.66MB Simrad multibeam processing format
0405_20030608_042727p.mb57.gz 4.84MB Simrad multibeam processing format
0406_20030608_052727p.mb57.gz 4.84MB Simrad multibeam processing format
0407_20030608_062727p.mb57.gz 4.71MB Simrad multibeam processing format
0408_20030608_072727p.mb57.gz 4.63MB Simrad multibeam processing format
0409_20030608_082727p.mb57.gz 4.78MB Simrad multibeam processing format
0410_20030608_092728p.mb57.gz 4.63MB Simrad multibeam processing format
0411_20030608_102728p.mb57.gz 4.62MB Simrad multibeam processing format
0412_20030608_112728p.mb57.gz 4.53MB Simrad multibeam processing format
0413_20030608_122728p.mb57.gz 4.62MB Simrad multibeam processing format
0414_20030608_132729p.mb57.gz 4.52MB Simrad multibeam processing format
0415_20030608_142729p.mb57.gz 4.59MB Simrad multibeam processing format
0416_20030608_152729p.mb57.gz 4.92MB Simrad multibeam processing format
0417_20030608_162729p.mb57.gz 4.62MB Simrad multibeam processing format
0418_20030608_172729p.mb57.gz 4.59MB Simrad multibeam processing format
0419_20030608_182729p.mb57.gz 4.64MB Simrad multibeam processing format
0420_20030608_192729p.mb57.gz 4.60MB Simrad multibeam processing format
0421_20030608_202729p.mb57.gz 4.59MB Simrad multibeam processing format
0422_20030608_212729p.mb57.gz 4.16MB Simrad multibeam processing format
0423_20030608_222241p.mb57.gz 4.51MB Simrad multibeam processing format
0424_20030608_232241p.mb57.gz 4.99MB Simrad multibeam processing format
0425_20030609_002241p.mb57.gz 4.67MB Simrad multibeam processing format
0426_20030609_012241p.mb57.gz 4.01MB Simrad multibeam processing format
0427_20030609_022242p.mb57.gz 4.48MB Simrad multibeam processing format
0428_20030609_032242p.mb57.gz 4.48MB Simrad multibeam processing format
0429_20030609_042242p.mb57.gz 4.45MB Simrad multibeam processing format
0430_20030609_052242p.mb57.gz 4.60MB Simrad multibeam processing format
0431_20030609_062242p.mb57.gz 4.51MB Simrad multibeam processing format
0432_20030609_072242p.mb57.gz 4.50MB Simrad multibeam processing format
0433_20030609_082242p.mb57.gz 4.62MB Simrad multibeam processing format
0434_20030609_092242p.mb57.gz 4.59MB Simrad multibeam processing format
0435_20030609_102243p.mb57.gz 4.57MB Simrad multibeam processing format
0436_20030609_112244p.mb57.gz 4.49MB Simrad multibeam processing format
0437_20030609_122244p.mb57.gz 4.52MB Simrad multibeam processing format
0438_20030609_132244p.mb57.gz 1.77MB Simrad multibeam processing format
0439_20030609_140111p.mb57.gz 4.49MB Simrad multibeam processing format
0440_20030609_150111p.mb57.gz 4.46MB Simrad multibeam processing format
0441_20030609_160112p.mb57.gz 4.53MB Simrad multibeam processing format
0442_20030609_170112p.mb57.gz 4.45MB Simrad multibeam processing format
0443_20030609_180112p.mb57.gz 4.34MB Simrad multibeam processing format
0444_20030609_190112p.mb57.gz 4.43MB Simrad multibeam processing format
0445_20030609_200112p.mb57.gz 4.45MB Simrad multibeam processing format
0446_20030609_210112p.mb57.gz 4.88MB Simrad multibeam processing format
0447_20030609_220112p.mb57.gz 4.51MB Simrad multibeam processing format
0448_20030609_230112p.mb57.gz 4.45MB Simrad multibeam processing format
0449_20030610_000112p.mb57.gz 4.45MB Simrad multibeam processing format
0450_20030610_010113p.mb57.gz 4.50MB Simrad multibeam processing format
0451_20030610_020113p.mb57.gz 4.45MB Simrad multibeam processing format
0452_20030610_030113p.mb57.gz 4.43MB Simrad multibeam processing format
0453_20030610_040113p.mb57.gz 4.53MB Simrad multibeam processing format
0454_20030610_050113p.mb57.gz 4.49MB Simrad multibeam processing format
0455_20030610_060113p.mb57.gz 4.51MB Simrad multibeam processing format
0456_20030610_070113p.mb57.gz 4.50MB Simrad multibeam processing format
0457_20030610_080113p.mb57.gz 4.54MB Simrad multibeam processing format
0458_20030610_090113p.mb57.gz 4.43MB Simrad multibeam processing format
0459_20030610_100113p.mb57.gz 4.48MB Simrad multibeam processing format
0460_20030610_110114p.mb57.gz 4.50MB Simrad multibeam processing format
0461_20030610_120114p.mb57.gz 4.53MB Simrad multibeam processing format
0462_20030610_130115p.mb57.gz 4.58MB Simrad multibeam processing format
0463_20030610_140115p.mb57.gz 4.62MB Simrad multibeam processing format
0464_20030610_150116p.mb57.gz 4.55MB Simrad multibeam processing format
0465_20030610_160116p.mb57.gz 4.51MB Simrad multibeam processing format
0466_20030610_170116p.mb57.gz 4.70MB Simrad multibeam processing format
0467_20030610_180116p.mb57.gz 4.57MB Simrad multibeam processing format
0468_20030610_190116p.mb57.gz 4.37MB Simrad multibeam processing format
0469_20030610_200116p.mb57.gz 4.55MB Simrad multibeam processing format
0470_20030610_210116p.mb57.gz 4.15MB Simrad multibeam processing format
0471_20030610_220117p.mb57.gz 4.38MB Simrad multibeam processing format
0472_20030610_230117p.mb57.gz 4.47MB Simrad multibeam processing format
0473_20030611_000117p.mb57.gz 4.16MB Simrad multibeam processing format
0474_20030611_010117p.mb57.gz 4.17MB Simrad multibeam processing format
0475_20030611_020117p.mb57.gz 4.58MB Simrad multibeam processing format
0476_20030611_030117p.mb57.gz 4.60MB Simrad multibeam processing format
0477_20030611_040117p.mb57.gz 4.06MB Simrad multibeam processing format
0478_20030611_050118p.mb57.gz 4.49MB Simrad multibeam processing format
0479_20030611_060118p.mb57.gz 2.71MB Simrad multibeam processing format
0481_20030611_063947p.mb57.gz 4.07MB Simrad multibeam processing format
0482_20030611_073947p.mb57.gz 4.09MB Simrad multibeam processing format
0483_20030611_083947p.mb57.gz 3.59MB Simrad multibeam processing format
0484_20030611_093948p.mb57.gz 3.38MB Simrad multibeam processing format
0485_20030611_103948p.mb57.gz 4.00MB Simrad multibeam processing format
0486_20030611_113948p.mb57.gz 3.94MB Simrad multibeam processing format
0487_20030611_123949p.mb57.gz 3.97MB Simrad multibeam processing format
0488_20030611_133949p.mb57.gz 3.87MB Simrad multibeam processing format
0489_20030611_143949p.mb57.gz 4.21MB Simrad multibeam processing format
0490_20030611_153949p.mb57.gz 4.81MB Simrad multibeam processing format
0491_20030611_163949p.mb57.gz 4.67MB Simrad multibeam processing format
0492_20030611_173949p.mb57.gz 322.5KB Simrad multibeam processing format
0493_20030611_174510p.mb57.gz 0.50MB Simrad multibeam processing format
0494_20030611_174930p.mb57.gz 5.56MB Simrad multibeam processing format
0495_20030611_182932p.mb57.gz 5.33MB Simrad multibeam processing format
0496_20030611_185455p.mb57.gz 191.2KB Simrad multibeam processing format
0497_20030611_185620p.mb57.gz 2.69MB Simrad multibeam processing format
0500_20030624_194742p.mb57.gz 18.68MB Simrad multibeam processing format
0501_20030624_204743p.mb57.gz 10.04MB Simrad multibeam processing format
0502_20030624_214743p.mb57.gz 5.82MB Simrad multibeam processing format
0503_20030624_224743p.mb57.gz 5.97MB Simrad multibeam processing format
0504_20030624_234743p.mb57.gz 7.00MB Simrad multibeam processing format
0505_20030625_004743p.mb57.gz 10.71MB Simrad multibeam processing format
0506_20030625_014743p.mb57.gz 8.65MB Simrad multibeam processing format
0507_20030625_024743p.mb57.gz 2.00MB Simrad multibeam processing format
0508_20030625_030920p.mb57.gz 4.86MB Simrad multibeam processing format
0509_20030625_040921p.mb57.gz 4.95MB Simrad multibeam processing format
0510_20030625_050921p.mb57.gz 5.04MB Simrad multibeam processing format
0511_20030625_060921p.mb57.gz 5.01MB Simrad multibeam processing format
0512_20030625_070921p.mb57.gz 4.67MB Simrad multibeam processing format
0513_20030625_080921p.mb57.gz 4.77MB Simrad multibeam processing format
0514_20030625_090921p.mb57.gz 4.75MB Simrad multibeam processing format
0515_20030625_100922p.mb57.gz 4.80MB Simrad multibeam processing format
0516_20030625_110922p.mb57.gz 4.82MB Simrad multibeam processing format
0517_20030625_120922p.mb57.gz 4.85MB Simrad multibeam processing format
0518_20030625_130922p.mb57.gz 4.92MB Simrad multibeam processing format
0519_20030625_140922p.mb57.gz 4.67MB Simrad multibeam processing format
0520_20030625_150922p.mb57.gz 4.93MB Simrad multibeam processing format
0521_20030625_160922p.mb57.gz 4.85MB Simrad multibeam processing format
0522_20030625_170922p.mb57.gz 4.79MB Simrad multibeam processing format
0523_20030625_180922p.mb57.gz 4.97MB Simrad multibeam processing format
0524_20030625_190922p.mb57.gz 4.95MB Simrad multibeam processing format
0525_20030625_200923p.mb57.gz 4.93MB Simrad multibeam processing format
0526_20030625_210923p.mb57.gz 4.81MB Simrad multibeam processing format
0527_20030625_220923p.mb57.gz 4.62MB Simrad multibeam processing format
0528_20030625_230923p.mb57.gz 4.77MB Simrad multibeam processing format
0529_20030626_000923p.mb57.gz 4.57MB Simrad multibeam processing format
0530_20030626_010923p.mb57.gz 4.63MB Simrad multibeam processing format
0531_20030626_020923p.mb57.gz 4.75MB Simrad multibeam processing format
0532_20030626_030923p.mb57.gz 4.83MB Simrad multibeam processing format
0533_20030626_040923p.mb57.gz 4.81MB Simrad multibeam processing format
0534_20030626_050923p.mb57.gz 4.75MB Simrad multibeam processing format
0535_20030626_060923p.mb57.gz 4.26MB Simrad multibeam processing format
0536_20030626_070923p.mb57.gz 4.26MB Simrad multibeam processing format
0537_20030626_080924p.mb57.gz 4.65MB Simrad multibeam processing format
0538_20030626_090924p.mb57.gz 4.63MB Simrad multibeam processing format
0539_20030626_100924p.mb57.gz 4.69MB Simrad multibeam processing format
0540_20030626_110924p.mb57.gz 4.57MB Simrad multibeam processing format
0541_20030626_120924p.mb57.gz 4.69MB Simrad multibeam processing format
0542_20030626_130924p.mb57.gz 4.26MB Simrad multibeam processing format
0543_20030626_140924p.mb57.gz 4.31MB Simrad multibeam processing format
0544_20030626_150924p.mb57.gz 4.21MB Simrad multibeam processing format
0545_20030626_160924p.mb57.gz 4.32MB Simrad multibeam processing format
0546_20030626_170924p.mb57.gz 4.34MB Simrad multibeam processing format
0547_20030626_180924p.mb57.gz 4.40MB Simrad multibeam processing format
0548_20030626_190924p.mb57.gz 4.61MB Simrad multibeam processing format
0549_20030626_200925p.mb57.gz 4.32MB Simrad multibeam processing format
0550_20030626_210925p.mb57.gz 4.22MB Simrad multibeam processing format
0551_20030626_220925p.mb57.gz 4.40MB Simrad multibeam processing format
0552_20030626_230925p.mb57.gz 1.94MB Simrad multibeam processing format
0553_20030626_233436p.mb57.gz 4.37MB Simrad multibeam processing format
0554_20030627_003436p.mb57.gz 4.19MB Simrad multibeam processing format
0555_20030627_013436p.mb57.gz 4.30MB Simrad multibeam processing format
0556_20030627_023436p.mb57.gz 4.28MB Simrad multibeam processing format
0557_20030627_033437p.mb57.gz 4.80MB Simrad multibeam processing format
0558_20030627_043437p.mb57.gz 4.77MB Simrad multibeam processing format
0559_20030627_053437p.mb57.gz 4.82MB Simrad multibeam processing format
0560_20030627_063437p.mb57.gz 4.84MB Simrad multibeam processing format
0561_20030627_073437p.mb57.gz 4.89MB Simrad multibeam processing format
0562_20030627_083437p.mb57.gz 4.87MB Simrad multibeam processing format
0563_20030627_093437p.mb57.gz 4.69MB Simrad multibeam processing format
0564_20030627_103439p.mb57.gz 4.36MB Simrad multibeam processing format
0565_20030627_113439p.mb57.gz 4.69MB Simrad multibeam processing format
0566_20030627_123439p.mb57.gz 4.65MB Simrad multibeam processing format
0567_20030627_133439p.mb57.gz 4.78MB Simrad multibeam processing format
0568_20030627_143439p.mb57.gz 4.60MB Simrad multibeam processing format
0569_20030627_153439p.mb57.gz 330.8KB Simrad multibeam processing format
0570_20030627_153902p.mb57.gz 31.8KB Simrad multibeam processing format
0571_20030627_153938p.mb57.gz 4.39MB Simrad multibeam processing format
0572_20030627_163938p.mb57.gz 4.54MB Simrad multibeam processing format
0573_20030627_173938p.mb57.gz 4.35MB Simrad multibeam processing format
0574_20030627_183938p.mb57.gz 4.26MB Simrad multibeam processing format
0575_20030627_193938p.mb57.gz 4.24MB Simrad multibeam processing format
0576_20030627_203938p.mb57.gz 4.17MB Simrad multibeam processing format
0577_20030627_213939p.mb57.gz 4.27MB Simrad multibeam processing format
0578_20030627_223939p.mb57.gz 4.32MB Simrad multibeam processing format
0579_20030627_233939p.mb57.gz 4.21MB Simrad multibeam processing format
0580_20030628_003939p.mb57.gz 4.33MB Simrad multibeam processing format
0581_20030628_013939p.mb57.gz 4.27MB Simrad multibeam processing format
0582_20030628_023939p.mb57.gz 4.33MB Simrad multibeam processing format
0583_20030628_033939p.mb57.gz 4.40MB Simrad multibeam processing format
0584_20030628_043939p.mb57.gz 4.40MB Simrad multibeam processing format
0585_20030628_053939p.mb57.gz 4.40MB Simrad multibeam processing format
0586_20030628_063939p.mb57.gz 4.27MB Simrad multibeam processing format
0587_20030628_073940p.mb57.gz 4.35MB Simrad multibeam processing format
0588_20030628_083940p.mb57.gz 4.32MB Simrad multibeam processing format
0589_20030628_093940p.mb57.gz 4.27MB Simrad multibeam processing format
0590_20030628_103940p.mb57.gz 4.25MB Simrad multibeam processing format
0591_20030628_113940p.mb57.gz 4.26MB Simrad multibeam processing format
0592_20030628_123940p.mb57.gz 4.30MB Simrad multibeam processing format
0593_20030628_133940p.mb57.gz 4.24MB Simrad multibeam processing format
0594_20030628_143940p.mb57.gz 4.30MB Simrad multibeam processing format
0595_20030628_153940p.mb57.gz 4.25MB Simrad multibeam processing format
0596_20030628_163941p.mb57.gz 4.26MB Simrad multibeam processing format
0597_20030628_173941p.mb57.gz 4.29MB Simrad multibeam processing format
0598_20030628_183941p.mb57.gz 4.42MB Simrad multibeam processing format
0599_20030628_193941p.mb57.gz 4.41MB Simrad multibeam processing format
0600_20030628_203941p.mb57.gz 4.37MB Simrad multibeam processing format
0601_20030628_213941p.mb57.gz 4.22MB Simrad multibeam processing format
0602_20030628_223941p.mb57.gz 1.53MB Simrad multibeam processing format
0603_20030628_230200p.mb57.gz 4.20MB Simrad multibeam processing format
0604_20030629_000200p.mb57.gz 4.23MB Simrad multibeam processing format
0605_20030629_010200p.mb57.gz 4.18MB Simrad multibeam processing format
0606_20030629_020200p.mb57.gz 4.22MB Simrad multibeam processing format
0607_20030629_030200p.mb57.gz 4.14MB Simrad multibeam processing format
0608_20030629_040200p.mb57.gz 4.13MB Simrad multibeam processing format
0609_20030629_050200p.mb57.gz 4.10MB Simrad multibeam processing format
0610_20030629_060200p.mb57.gz 4.17MB Simrad multibeam processing format
0611_20030629_070200p.mb57.gz 4.16MB Simrad multibeam processing format
0612_20030629_080200p.mb57.gz 4.21MB Simrad multibeam processing format
0613_20030629_090201p.mb57.gz 4.24MB Simrad multibeam processing format
0614_20030629_100201p.mb57.gz 4.13MB Simrad multibeam processing format
0615_20030629_110201p.mb57.gz 4.03MB Simrad multibeam processing format
0616_20030629_120202p.mb57.gz 4.17MB Simrad multibeam processing format
0617_20030629_130202p.mb57.gz 4.27MB Simrad multibeam processing format
0618_20030629_140202p.mb57.gz 4.07MB Simrad multibeam processing format
0619_20030629_150202p.mb57.gz 4.06MB Simrad multibeam processing format
0620_20030629_160202p.mb57.gz 4.17MB Simrad multibeam processing format
0621_20030629_170203p.mb57.gz 4.13MB Simrad multibeam processing format
0622_20030629_180203p.mb57.gz 4.14MB Simrad multibeam processing format
0623_20030629_190203p.mb57.gz 4.20MB Simrad multibeam processing format
0624_20030629_200203p.mb57.gz 4.17MB Simrad multibeam processing format
0625_20030629_210203p.mb57.gz 4.18MB Simrad multibeam processing format
0626_20030629_220203p.mb57.gz 4.12MB Simrad multibeam processing format
0627_20030629_230203p.mb57.gz 4.15MB Simrad multibeam processing format
0628_20030630_000203p.mb57.gz 4.23MB Simrad multibeam processing format
0629_20030630_010203p.mb57.gz 4.08MB Simrad multibeam processing format
0630_20030630_020203p.mb57.gz 4.09MB Simrad multibeam processing format
0631_20030630_030203p.mb57.gz 4.26MB Simrad multibeam processing format
0632_20030630_040204p.mb57.gz 4.26MB Simrad multibeam processing format
0633_20030630_050204p.mb57.gz 4.39MB Simrad multibeam processing format
0634_20030630_060204p.mb57.gz 4.34MB Simrad multibeam processing format
0635_20030630_070204p.mb57.gz 4.47MB Simrad multibeam processing format
0636_20030630_080204p.mb57.gz 4.44MB Simrad multibeam processing format
0637_20030630_090204p.mb57.gz 4.50MB Simrad multibeam processing format
0638_20030630_100204p.mb57.gz 4.52MB Simrad multibeam processing format
0639_20030630_110204p.mb57.gz 4.47MB Simrad multibeam processing format
0640_20030630_120204p.mb57.gz 4.34MB Simrad multibeam processing format
0641_20030630_130204p.mb57.gz 4.43MB Simrad multibeam processing format
0642_20030630_140204p.mb57.gz 4.49MB Simrad multibeam processing format
0643_20030630_150204p.mb57.gz 4.43MB Simrad multibeam processing format
0644_20030630_160205p.mb57.gz 4.50MB Simrad multibeam processing format
0645_20030630_170205p.mb57.gz 4.39MB Simrad multibeam processing format
0646_20030630_180205p.mb57.gz 4.46MB Simrad multibeam processing format
0647_20030630_190205p.mb57.gz 4.51MB Simrad multibeam processing format
0648_20030630_200205p.mb57.gz 4.36MB Simrad multibeam processing format
0649_20030630_210108p.mb57.gz 4.84MB Simrad multibeam processing format
0650_20030630_220108p.mb57.gz 4.84MB Simrad multibeam processing format
0651_20030630_230108p.mb57.gz 4.84MB Simrad multibeam processing format
0652_20030701_000109p.mb57.gz 4.82MB Simrad multibeam processing format
0653_20030701_010109p.mb57.gz 4.41MB Simrad multibeam processing format
0654_20030701_020109p.mb57.gz 4.18MB Simrad multibeam processing format
0655_20030701_030109p.mb57.gz 4.19MB Simrad multibeam processing format
0656_20030701_040109p.mb57.gz 4.10MB Simrad multibeam processing format
0657_20030701_050109p.mb57.gz 4.21MB Simrad multibeam processing format
0658_20030701_060109p.mb57.gz 4.30MB Simrad multibeam processing format
0659_20030701_070109p.mb57.gz 4.17MB Simrad multibeam processing format
0660_20030701_080109p.mb57.gz 4.08MB Simrad multibeam processing format
0661_20030701_090109p.mb57.gz 4.17MB Simrad multibeam processing format
0662_20030701_100109p.mb57.gz 4.27MB Simrad multibeam processing format
0663_20030701_110109p.mb57.gz 4.11MB Simrad multibeam processing format
0664_20030701_120110p.mb57.gz 4.18MB Simrad multibeam processing format
0665_20030701_130110p.mb57.gz 4.12MB Simrad multibeam processing format
0666_20030701_140110p.mb57.gz 4.07MB Simrad multibeam processing format
0667_20030701_150110p.mb57.gz 4.12MB Simrad multibeam processing format
0668_20030701_160110p.mb57.gz 4.25MB Simrad multibeam processing format
0669_20030701_170110p.mb57.gz 4.21MB Simrad multibeam processing format
0670_20030701_180110p.mb57.gz 4.15MB Simrad multibeam processing format
0671_20030701_190110p.mb57.gz 4.25MB Simrad multibeam processing format
0672_20030701_200110p.mb57.gz 4.15MB Simrad multibeam processing format
0673_20030701_210110p.mb57.gz 4.43MB Simrad multibeam processing format
0674_20030701_220110p.mb57.gz 4.34MB Simrad multibeam processing format
0675_20030701_230110p.mb57.gz 4.31MB Simrad multibeam processing format
0676_20030702_000111p.mb57.gz 1.26MB Simrad multibeam processing format
0677_20030702_001812p.mb57.gz 3.01MB Simrad multibeam processing format
0678_20030702_010044p.mb57.gz 4.47MB Simrad multibeam processing format
0679_20030702_020044p.mb57.gz 4.55MB Simrad multibeam processing format
0680_20030702_030044p.mb57.gz 2.85MB Simrad multibeam processing format
0681_20030702_033836p.mb57.gz 1.76MB Simrad multibeam processing format
0682_20030702_040211p.mb57.gz 4.31MB Simrad multibeam processing format
0683_20030702_050211p.mb57.gz 4.23MB Simrad multibeam processing format
0684_20030702_060212p.mb57.gz 4.14MB Simrad multibeam processing format
0685_20030702_070212p.mb57.gz 4.00MB Simrad multibeam processing format
0686_20030702_080212p.mb57.gz 4.35MB Simrad multibeam processing format
0687_20030702_090212p.mb57.gz 4.56MB Simrad multibeam processing format
0688_20030702_100212p.mb57.gz 4.74MB Simrad multibeam processing format
0689_20030702_110212p.mb57.gz 4.79MB Simrad multibeam processing format
0690_20030702_120213p.mb57.gz 4.81MB Simrad multibeam processing format
0691_20030702_130213p.mb57.gz 81.6KB Simrad multibeam processing format
0692_20030702_131124p.mb57.gz 5.79MB Simrad multibeam processing format
0693_20030702_141125p.mb57.gz 0.82MB Simrad multibeam processing format

Metadata Files: 3

Files File Size Description
NBP0304_Multibeam.xml NCEI created ISO metadata
NBP0304coef.pdf 26.1KB PDF metadata file
NBP0304data.pdf 0.60MB PDF metadata file